Victoria, TX

9:47 AM CST on December 13, 2019 (GMT -0600)
Victoria Regional

Weather History for KVCT - October, 2019

Change the Weather History Date:

Tuesday, October 1, 2019

  Actual Average Record
Temperature  
Mean Temperature 82 °F 76 °F  
Max Temperature 91 °F 87 °F 102 °F (1926)
Min Temperature 75 °F 65 °F 48 °F (1992)
Degree Days  
Heating Degree Days 0 0  
Month to date heating degree days 0  
Since 1 July heating degree days 1  
Cooling Degree Days 18 11  
Month to date cooling degree days 11  
Year to date cooling degree days 2809  
Growing Degree Days 32 (Base 50)    
Moisture  
Dew Point 74 °F    
Average Humidity 79    
Maximum Humidity 94    
Minimum Humidity 57    
Precipitation  
Precipitation 0.00 in 0.14 in 1.80 in (1958)
Month to date precipitation 0.14  
Year to date precipitation 31.17  
Snow  
Snow - 0.00 in 0.00 in (2002)
Month to date snowfall 0.0  
Since 1 July snowfall 0.0  
Since 1 September snowfall 0.0  
Snow Depth -    
Sea Level Pressure  
Sea Level Pressure 29.95 in    
Wind  
Wind Speed 7 mph ()    
Max Wind Speed 17 mph    
Max Gust Speed 24 mph    
Visibility 8.8 miles    
Events      
T = Trace of Precipitation, MM = Missing Value Source: Averaged Metar Reports

Daily Weather History Graph

Daily Weather History Graph

Search for Another Location

Airport or City:

Astronomy

Oct. 01, 2019 Rise Set
Actual Time 7:20 AM CDT 7:13 PM CDT
Civil Twilight 6:57 AM CDT 7:37 PM CDT
Nautical Twilight 6:29 AM CDT 8:04 PM CDT
Astronomical Twilight 6:02 AM CDT 8:32 PM CDT
Moon 10:24 AM CDT (10/1) 9:43 PM CDT (10/1)
Length of Visible Light 12h 40m
Length of Day
11h 52m
Waxing Crescent, 12% of the Moon is Illuminated
Oct 1
Waxing Crescent
Oct 5
First Quarter
Oct 13
Full
Oct 21
Last Quarter
Oct 27
New

Hourly Weather History & Observations

Time (CDT) Temp. Heat Index Dew Point Humidity Pressure Visibility Wind Dir Wind Speed Gust Speed Precip Events Conditions
12:51 AM 78.1 °F - 75.0 °F 90% 29.96 in 8.0 mi ESE 5.8 mph - N/A   Partly Cloudy
1:51 AM 77.0 °F - 75.0 °F 94% 29.96 in 7.0 mi East 3.5 mph - N/A   Scattered Clouds
2:51 AM 77.0 °F - 73.9 °F 90% 29.96 in 7.0 mi East 4.6 mph - N/A   Clear
3:51 AM 75.9 °F - 73.9 °F 94% 29.95 in 7.0 mi ESE 3.5 mph - N/A   Clear
4:51 AM 75.9 °F - 73.0 °F 91% 29.95 in 7.0 mi ENE 4.6 mph - N/A   Clear
5:51 AM 75.0 °F - 73.0 °F 94% 29.95 in 6.0 mi ENE 4.6 mph - N/A   Clear
6:51 AM 75.0 °F - 73.0 °F 94% 29.96 in 6.0 mi ENE 5.8 mph - N/A   Clear
7:51 AM 75.0 °F - 73.0 °F 94% 29.96 in 6.0 mi ENE 4.6 mph - N/A   Partly Cloudy
8:51 AM 79.0 °F - 75.9 °F 90% 29.98 in 10.0 mi East 5.8 mph - N/A   Clear
9:51 AM 82.9 °F 90.2 °F 75.0 °F 77% 29.99 in 10.0 mi ESE 8.1 mph - N/A   Clear
10:51 AM 86.0 °F 93.8 °F 73.9 °F 67% 29.99 in 10.0 mi SE 11.5 mph 18.4 mph N/A   Mostly Cloudy
11:51 AM 87.1 °F 95.4 °F 73.9 °F 65% 29.99 in 10.0 mi ESE 12.7 mph - N/A   Overcast
12:51 PM 89.1 °F 99.1 °F 75.0 °F 63% 29.98 in 10.0 mi SE 12.7 mph 18.4 mph N/A   Scattered Clouds
1:51 PM 89.1 °F 98.0 °F 73.9 °F 61% 29.95 in 10.0 mi ESE 12.7 mph - N/A   Partly Cloudy
2:51 PM 89.1 °F 98.0 °F 73.9 °F 61% 29.92 in 10.0 mi ESE 13.8 mph - N/A   Scattered Clouds
3:51 PM 90.0 °F 97.9 °F 73.0 °F 57% 29.91 in 10.0 mi SE 16.1 mph - N/A   Partly Cloudy
4:51 PM 89.1 °F 96.0 °F 72.0 °F 57% 29.90 in 10.0 mi ESE 16.1 mph - N/A   Partly Cloudy
5:51 PM 87.1 °F 94.5 °F 73.0 °F 63% 29.91 in 10.0 mi SE 17.3 mph 24.2 mph N/A   Partly Cloudy
6:51 PM 84.0 °F 91.2 °F 73.9 °F 72% 29.92 in 10.0 mi SE 13.8 mph - N/A   Clear
7:51 PM 82.0 °F 87.9 °F 73.9 °F 76% 29.92 in 10.0 mi ESE 11.5 mph - N/A   Partly Cloudy
8:51 PM 80.1 °F 84.5 °F 73.9 °F 81% 29.94 in 10.0 mi ESE 6.9 mph - N/A   Clear
9:51 PM 79.0 °F - 73.9 °F 84% 29.94 in 9.0 mi ESE 9.2 mph - N/A   Clear
10:51 PM 78.1 °F - 73.0 °F 84% 29.94 in 10.0 mi ESE 5.8 mph - N/A   Clear
11:51 PM 77.0 °F - 73.0 °F 88% 29.93 in 8.0 mi East 3.5 mph - N/A   Clear